(261805) = 2006 BV263

Discovered at Kitt Peak on 2006-01-31 by Spacewatch.

Orbit

Orbit type: Main Belt

Note: WebGL enabled browser required.

epoch2023-02-25.0
epoch JD2460000.5
perihelion date2021-12-17.77337
perihelion JD2459566.27337
argument of perihelion (°)53.11539
ascending node (°)51.44003
inclination (°)2.69867
eccentricity0.1398628
perihelion distance (AU)2.6736656
Tisserand w.r.t. Jupiter3.2
ΔV w.r.t. Earth (km/sec)10.3
semimajor axis (AU)3.1084176
mean anomaly (°)78.09285
mean daily motion (°/day)0.17984350
aphelion distance (AU)3.543
period (years)5.48
P-vector [x]-0.25062271
P-vector [y]0.87254817
P-vector [z]0.41934228
Q-vector [x]-0.96738450
Q-vector [y]-0.24219994
Q-vector [z]-0.07420529
absolute magnitude16.63
phase slope0.15
uncertainty0
referenceMPO 745323
observations used257
oppositions11
arc length (days)6789
first opposition used2004
last opposition used2023
residual rms (arc-secs)0.75
perturbers coarse indicatorM-v
perturbers precise indicator003Ek
first observation date used2004-10-15.0
last observation date used2023-05-18.0
computer nameMPCLINUX
JD of orbit computation2456877.864352
perihelion JD uncertainty (days)1.9957E-04
argument of perihelion uncertainty (°)1.3202E-04
ascending node uncertainty (°)1.2731E-04
inclination uncertainty (°)5.2513E-06
eccentricity uncertainty 4.4062E-08
perihelion distance uncertainty (AU)1.4075E-07
Minimum Orbit Intersection Distances (in AU)
for orbit epoch: 2460000.5, reference: E2023-K54
Mercury2.35863
Venus1.95474
Earth1.69101
Mars1.05122
Jupiter1.5986
Saturn6.33396
Uranus15.4594
Neptune26.6439

Observations

262 total observations over interval: 2004 10 15.40905 – 2023 05 18.340677
These data are available for download (format description).

Date (UT) J2000 RA J2000 Dec Magn Location Ref
2004 10 15.40905 03 56 29.81 +20 09 32.6 21.1 V 691 – Steward Observatory, Kitt Peak-Spacewatch MPS 172060
2004 10 15.43576 03 56 29.15 +20 09 31.9 21.1 V 691 – Steward Observatory, Kitt Peak-Spacewatch MPS 172060
2004 10 15.46244 03 56 28.55 +20 09 31.7 20.8 V 691 – Steward Observatory, Kitt Peak-Spacewatch MPS 172060
2004 11 04.22289 03 44 38.72 +19 51 15.4 20.6 V 691 – Steward Observatory, Kitt Peak-Spacewatch MPS 172060
2004 11 04.24963 03 44 37.43 +19 51 13.0 20.6 V 691 – Steward Observatory, Kitt Peak-Spacewatch MPS 172060
2004 11 04.27708 03 44 36.08 +19 51 10.6 20.6 V 691 – Steward Observatory, Kitt Peak-Spacewatch MPS 172060
2004 11 19.21038 03 31 50.61 +19 23 20.5 20.2 V 691 – Steward Observatory, Kitt Peak-Spacewatch MPS 172060
2004 11 19.24091 03 31 48.95 +19 23 17.0 20.4 V 691 – Steward Observatory, Kitt Peak-Spacewatch MPS 172060
2004 11 19.27217 03 31 47.22 +19 23 13.0 20.6 V 691 – Steward Observatory, Kitt Peak-Spacewatch MPS 172060
2006 01 31.44743 11 22 08.85 +08 10 10.5 21.0 V 691 – Steward Observatory, Kitt Peak-Spacewatch MPS 163329
2006 01 31.46483 11 22 08.43 +08 10 13.7 20.8 V 691 – Steward Observatory, Kitt Peak-Spacewatch MPS 163329
2006 01 31.48222 11 22 08.00 +08 10 17.0 21.1 V 691 – Steward Observatory, Kitt Peak-Spacewatch MPS 163329
2006 02 04.45926 11 20 25.14 +08 23 58.3 21.0 V 691 – Steward Observatory, Kitt Peak-Spacewatch MPS 163329
2006 02 04.47753 11 20 24.55 +08 24 02.4 21.5 V 691 – Steward Observatory, Kitt Peak-Spacewatch MPS 163329
2006 02 04.49493 11 20 24.09 +08 24 06.6 21.1 V 691 – Steward Observatory, Kitt Peak-Spacewatch MPS 163329
2006 02 25.23686 11 06 58.53 +09 54 42.4 20.6 V 691 – Steward Observatory, Kitt Peak-Spacewatch MPS 166201
2006 02 25.25423 11 06 57.67 +09 54 47.6 20.6 V 691 – Steward Observatory, Kitt Peak-Spacewatch MPS 166201
2006 02 25.27158 11 06 56.84 +09 54 53.3 20.5 V 691 – Steward Observatory, Kitt Peak-Spacewatch MPS 166201
2006 03 04.27709 11 01 25.82 +10 27 18.6 20.4 V G96 – Mt. Lemmon Survey MPS 166201
2006 03 04.28668 11 01 25.32 +10 27 21.1 20.5 V G96 – Mt. Lemmon Survey MPS 166201
2006 03 04.29654 11 01 24.88 +10 27 23.5 20.5 V G96 – Mt. Lemmon Survey MPS 166201
2006 03 04.30618 11 01 24.38 +10 27 26.3 20.4 V G96 – Mt. Lemmon Survey MPS 166201
2006 03 08.15786 10 58 21.76 +10 44 20.2 20.4 V 691 – Steward Observatory, Kitt Peak-Spacewatch MPS 166201
2006 03 08.17524 10 58 20.95 +10 44 25.7 20.4 V 691 – Steward Observatory, Kitt Peak-Spacewatch MPS 166201
2006 03 08.19259 10 58 20.06 +10 44 30.2 20.6 V 691 – Steward Observatory, Kitt Peak-Spacewatch MPS 166201
2006 03 08.21875 10 58 18.80 +10 44 36.6 20.8 V 691 – Steward Observatory, Kitt Peak-Spacewatch MPS 166201
2006 03 08.23897 10 58 17.81 +10 44 41.5 20.9 V 691 – Steward Observatory, Kitt Peak-Spacewatch MPS 166201
2006 03 08.25627 10 58 17.00 +10 44 46.4 21.0 V 691 – Steward Observatory, Kitt Peak-Spacewatch MPS 166201
2009 09 21.32520 00 42 23.25 +01 30 07.5 20.2 V G96 – Mt. Lemmon Survey MPS 295878
2009 09 21.33235 00 42 22.86 +01 30 04.7 21.0 V G96 – Mt. Lemmon Survey MPS 295878
2009 09 21.33944 00 42 22.53 +01 30 03.1 20.8 V G96 – Mt. Lemmon Survey MPS 295878
2009 09 21.34655 00 42 22.21 +01 30 01.3 21.0 V G96 – Mt. Lemmon Survey MPS 295878
2009 10 18.27605 00 22 24.02 -00 20 27.3 21.0 V G96 – Mt. Lemmon Survey MPS 299421
2009 10 18.28534 00 22 23.59 -00 20 29.1 21.4 V G96 – Mt. Lemmon Survey MPS 299421
2009 10 18.29468 00 22 23.19 -00 20 31.0 21.2 V G96 – Mt. Lemmon Survey MPS 299421
2009 10 18.30399 00 22 22.83 -00 20 33.4 21.0 V G96 – Mt. Lemmon Survey MPS 299421
2010 11 10.48390 07 43 47.64 +23 38 38.1 21.2 V G96 – Mt. Lemmon Survey MPS 355388
2010 11 10.49030 07 43 47.85 +23 38 39.3 21.7 V G96 – Mt. Lemmon Survey MPS 355388
2010 11 10.49665 07 43 47.92 +23 38 38.3 22.0 V G96 – Mt. Lemmon Survey MPS 355388
2010 11 10.50301 07 43 48.07 +23 38 40.0 21.3 V G96 – Mt. Lemmon Survey MPS 355388
2010 11 15.36901 07 45 23.32 +23 41 48.1 21.1 V G96 – Mt. Lemmon Survey MPS 357446
2010 11 15.37637 07 45 23.43 +23 41 48.1 21.2 V G96 – Mt. Lemmon Survey MPS 357446
2010 11 15.38387 07 45 23.50 +23 41 49.0 21.9 V G96 – Mt. Lemmon Survey MPS 357446
2010 11 15.39114 07 45 23.61 +23 41 49.1 21.4 V G96 – Mt. Lemmon Survey MPS 357446
2011 01 02.24976 07 27 03.99 +25 26 50.4 20.2 V G96 – Mt. Lemmon Survey MPS 363361
2011 01 02.25729 07 27 03.56 +25 26 51.4 20.3 V G96 – Mt. Lemmon Survey MPS 363361
2011 01 02.26494 07 27 03.09 +25 26 52.6 19.7 V G96 – Mt. Lemmon Survey MPS 363361
2011 01 02.27258 07 27 02.70 +25 26 54.0 19.9 V G96 – Mt. Lemmon Survey MPS 363361
2011 01 30.19024 07 02 58.27 +26 17 11.2 20.5 V G96 – Mt. Lemmon Survey MPS 369405
2011 01 30.19869 07 02 57.91 +26 17 11.5 20.4 V G96 – Mt. Lemmon Survey MPS 369405
2011 01 30.20731 07 02 57.55 +26 17 11.8 20.4 V G96 – Mt. Lemmon Survey MPS 369405
2011 01 30.21590 07 02 57.19 +26 17 12.3 20.7 V G96 – Mt. Lemmon Survey MPS 369405
2011 01 30.28158 07 02 54.629 +26 17 16.00 20.7 w F51 – Pan-STARRS 1, Haleakala MPS 379628
2011 01 30.29603 07 02 54.012 +26 17 16.79 20.6 w F51 – Pan-STARRS 1, Haleakala MPS 379628
2011 01 30.31128 07 02 53.355 +26 17 17.52 20.7 w F51 – Pan-STARRS 1, Haleakala MPS 379628
2011 01 30.32558 07 02 52.744 +26 17 18.33 20.7 w F51 – Pan-STARRS 1, Haleakala MPS 379628
2012 04 13.40688 13 37 35.496 -08 14 49.10 21.0 g F51 – Pan-STARRS 1, Haleakala MPS 421750
2012 04 13.41851 13 37 34.937 -08 14 46.27 21.3 g F51 – Pan-STARRS 1, Haleakala MPS 421750
2012 04 13.42986 13 37 34.387 -08 14 43.59 20.7 r F51 – Pan-STARRS 1, Haleakala MPS 421750
2012 04 13.44186 13 37 33.805 -08 14 40.88 20.7 r F51 – Pan-STARRS 1, Haleakala MPS 421750
2012 04 26.40491 13 27 40.370 -07 26 59.14 20.9 r F51 – Pan-STARRS 1, Haleakala MPS 422733
2012 04 26.41547 13 27 39.885 -07 26 57.07 20.9 r F51 – Pan-STARRS 1, Haleakala MPS 422733
2012 04 30.27081 13 24 57.16 -07 14 17.7 21.5 V G96 – Mt. Lemmon Survey MPS 423608
2012 04 30.27608 13 24 56.88 -07 14 16.4 20.9 V G96 – Mt. Lemmon Survey MPS 423608
2012 04 30.28134 13 24 56.66 -07 14 15.8 21.4 V G96 – Mt. Lemmon Survey MPS 423608
2012 04 30.28657 13 24 56.44 -07 14 15.1 21.7 V G96 – Mt. Lemmon Survey MPS 423608
2014 08 03.47963 22 38 57.581 -12 32 59.20 21.7 w F51 – Pan-STARRS 1, Haleakala MPS 526394
2014 08 03.49309 22 38 57.125 -12 33 02.06 21.7 w F51 – Pan-STARRS 1, Haleakala MPS 526394
2014 08 03.50651 22 38 56.639 -12 33 05.17 21.7 w F51 – Pan-STARRS 1, Haleakala MPS 526394
2014 08 03.51993 22 38 56.170 -12 33 08.38 21.6 w F51 – Pan-STARRS 1, Haleakala MPS 526394
2015 09 09.52226 03 48 55.863 +19 21 32.96 21.7 w F51 – Pan-STARRS 1, Haleakala MPS 626328
2015 09 09.52484 03 48 55.943 +19 21 33.33 21.7 w F51 – Pan-STARRS 1, Haleakala MPS 626328
2015 09 09.53405 03 48 56.201 +19 21 34.27 21.7 w F51 – Pan-STARRS 1, Haleakala MPS 626328
2015 09 09.53662 03 48 56.267 +19 21 34.88 21.9 w F51 – Pan-STARRS 1, Haleakala MPS 626328
2015 09 09.54583 03 48 56.509 +19 21 36.02 21.6 w F51 – Pan-STARRS 1, Haleakala MPS 626328
2015 09 09.54841 03 48 56.571 +19 21 36.16 21.9 w F51 – Pan-STARRS 1, Haleakala MPS 626328
2015 09 09.55765 03 48 56.832 +19 21 37.43 21.8 w F51 – Pan-STARRS 1, Haleakala MPS 626328
2015 09 09.56025 03 48 56.903 +19 21 37.41 21.8 w F51 – Pan-STARRS 1, Haleakala MPS 626328
2015 09 20.45911 03 52 51.87 +19 39 24.3 21.1 V G96 – Mt. Lemmon Survey MPS 631436
2015 09 20.46523 03 52 51.99 +19 39 25.1 21.4 V G96 – Mt. Lemmon Survey MPS 631436
2015 09 20.47133 03 52 52.04 +19 39 25.0 21.1 V G96 – Mt. Lemmon Survey MPS 631436
2015 09 20.47745 03 52 52.10 +19 39 25.2 21.4 V G96 – Mt. Lemmon Survey MPS 631436
2015 11 06.38511 03 37 17.87 +19 26 21.1 20.9 r G45 – Space Surveillance Telescope, Atom Site MPS 649750
2015 11 06.39151 03 37 17.53 +19 26 20.5 20.7 r G45 – Space Surveillance Telescope, Atom Site MPS 649750
2015 11 06.39158 03 37 17.53 +19 26 20.6 20.5 r G45 – Space Surveillance Telescope, Atom Site MPS 649750
2015 11 06.39775 03 37 17.19 +19 26 19.5 20.0 r G45 – Space Surveillance Telescope, Atom Site MPS 649750
2015 11 06.40438 03 37 16.90 +19 26 19.1 20.9 r G45 – Space Surveillance Telescope, Atom Site MPS 649750
2015 11 07.41320 03 36 27.11 +19 24 29.4 20.3 V G96 – Mt. Lemmon Survey MPS 649750
